Location: Groß Eilstorf
(52.8200°N, 9.4552°E)
Time: 19:44:40
(UTC+00:00)

Meteor 1-20 Rocket - Pass Details

Date: 15 May 2026
Orbit: 818 x 890 km, 81.2° (Epoch: 7 June)

Event Time Altitude Azimuth Distance (km) Brightness Sun altitude
Rises 19:44:51 0° 348° (NNW) 3,395 8.3 -4.6°
Reaches altitude 10° 19:47:19 10° 353° (N) 2,466 7.4 -4.9°
Maximum altitude 19:52:49 58° 72° (ENE) 992 4.5 -5.5°
Drops below altitude 10° 19:58:24 10° 151° (SSE) 2,497 6.1 -6.2°
Enters shadow 19:59:26 - 153° (SSE) 2,889 6.4 -6.3°
